Skip Page Navigation
NASA JPL Caltech
NASA Logo - Jet Propulsion Laboratory + View the NASA Portal
+ Center for Near-Earth Object Studies
JPL Home Earth Solar System Stars & Galaxies Technology
JPL Solar System Dynamics
BODIES ORBITS EPHEMERIDES TOOLS PHYSICAL DATA DISCOVERY FAQ SITE MAP
JPL Small-Body Database Browser
Search: [ help ]  
(2006 RB118)
Classification: Outer Main-belt Asteroid          SPK-ID: 3400809
Ephemeris | Orbit Diagram | Orbital Elements | Mission Design | Physical Parameters ]

[ show orbit diagram ]
Orbital Elements at Epoch 2453998.5 (2006-Sep-20.0) TDB
Reference: JPL 10 (heliocentric ecliptic J2000)
 Element Value Uncertainty (1-sigma)   Units 
e .6127607768137392 0.29966  
a 4.300449996949131 2.2749 au
q 1.665302916169939 0.40775 au
i 2.086122093131932 0.48273 deg
node 20.37924450921408 1.3701 deg
peri 89.14969047306056 9.3622 deg
M 330.6096431994661 26.727 deg
tp 2454264.432635754496
(2007-Jun-12.93263575)
30.826 TDB
period 3257.386411514387
8.92
2584.7
7.077
d
yr
n .1105180517507694 0.087696 deg/d
Q 6.935597077728323 3.6689 au
  Orbit Determination Parameters
   # obs. used (total)      27  
   data-arc span      8 days  
   first obs. used      2006-09-14  
   last obs. used      2006-09-22  
   planetary ephem.      DE441  
   SB-pert. ephem.      SB441-N16  
   condition code      9  
   norm. resid. RMS      .20098  
   source      ORB  
   producer      Otto Matic  
   solution date      2021-Apr-14 23:51:30  

Additional Information
 Earth MOID = .682344 au 
 Jupiter MOID = .0532213 au 
 T_jup = 2.646 
[ show covariance matrix ]

Ephemeris | Orbit Diagram | Orbital Elements | Mission Design | Physical Parameters ]

Physical Parameter Table
Parameter Symbol Value Units Sigma Reference Notes
absolute magnitude H 17.832   .70487 10 autocmod 2.9c
Ephemeris | Orbit Diagram | Orbital Elements | Mission Design | Physical Parameters ]
ABOUT SSD CREDITS/AWARDS PRIVACY/COPYRIGHT GLOSSARY LINKS
FirstGov 2021-May-13 07:09 UT
(server date/time)  
NASA Home Page
Site Manager:   Ryan S. Park
Webmaster  Alan B. Chamberlin